Regional Weather Roundup
Issued by NWS Upton, NY

Current Version | Previous Version | Text Only | Print | Product List | Glossary Off
Versions: 1 2 3 4 5 6 7 8 9 10 11 12 13 14 15 16 17 18 19 20 21 22 23 24 25 26 27 28
000 ASUS41 KOKX 310505 RWROKX REGIONAL WEATHER ROUNDUP NATIONAL WEATHER SERVICE NEW YORK NY 100 AM EDT TUE MAY 31 2016 NOTE: "FAIR" INDICATES FEW OR NO CLOUDS BELOW 12,000 FEET WITH NO SIGNIFICANT WEATHER AND/OR OBSTRUCTIONS TO VISIBILITY. NYZ071-072-176-178-NJZ106-104-310600- NEW YORK CITY METRO AREA CITY SKY/WX TMP DP RH WIND PRES REMARKS CENTRAL PARK CLOUDY 72 66 81 VRB5 29.97F LAGUARDIA APRT CLOUDY 74 72 93 SW6 29.93F KENNEDY INTL CLOUDY 67 64 90 S7 29.95F NEWARK/LIBERTY CLOUDY 72 68 87 SW6 29.94F BRNX BOT. GARD N/A 73 66 78 W14 29.96S TETERBORO CLOUDY 73 66 78 SW7 29.92F $$ NYZ177-179-078>081-310600- LONG ISLAND NEW YORK CITY SKY/WX TMP DP RH WIND PRES REMARKS FARMINGDALE CLOUDY 68 66 93 SW9 29.95F ISLIP NOT AVBL SHIRLEY CLOUDY 67 65 93 SW7 29.96F RIVERHEAD N/A 66 66 100 W1 29.94F WESTHAMPTON CLOUDY 66 64 93 SW10 29.97F EAST HAMPTON MOCLDY 66 64 96 SW9 29.95F MONTAUK POINT N/A 66 65 96 SW10G18 29.95F $$ NYZ052-065-067-310600- HUDSON VALLEY CITY SKY/WX TMP DP RH WIND PRES REMARKS WHITE PLAINS CLOUDY 69 67 93 CALM 29.94F NEWBURGH CLEAR 68 64 88 W8 29.94F MONTGOMERY MOCLDY 67 64 90 CALM 29.93F POUGHKEEPSIE PTCLDY 72 63 73 CALM 29.91F ALBANY CLOUDY 65 63 93 S3 29.92S $$ NJZ001-105-106-008-010-013-015-019>022-104-310600- NEW JERSEY CITY SKY/WX TMP DP RH WIND PRES REMARKS NEWARK/LIBERTY CLOUDY 72 68 87 SW6 29.94F TETERBORO CLOUDY 73 66 78 SW7 29.92F CALDWELL CLOUDY 73 67 81 SW3 29.94F MORRISTOWN CLOUDY 72 66 83 S3 29.95F SOMERVILLE MOCLDY 70 68 93 CALM 29.93F SUSSEX MOCLDY 65 63 93 CALM 29.95F ANDOVER N/A 68 66 93 CALM 29.96F TRENTON CLOUDY 71 67 87 SW5 29.94F MILLVILLE CLOUDY 69 67 93 CALM 29.97F ATLANTIC CITY FOG 68 68 100 SW3 29.96F VSB 1/2 WRIGHTSTOWN NOT AVBL TOMS RIVER CLOUDY 68 64 88 SW5 29.96F BELMAR CLOUDY 68 67 96 SW6 29.97F $$ PAZ047>061-062-071-310600- EASTERN PENNSYLVANIA CITY SKY/WX TMP DP RH WIND PRES REMARKS PHILADELPHIA CLOUDY 71 67 87 SW7 29.95F ALLENTOWN MOCLDY 68 63 84 CALM 29.96S SCRANTON CLOUDY 63 61 93 CALM 29.97F $$ CTZ002-004>006-009-010-012-RIZ004-006-007-MAZ004-011-015-310600- SOUTHERN NEW ENGLAND IN CT CITY SKY/WX TMP DP RH WIND PRES REMARKS BRADLEY INTL CLOUDY 71 68 90 S9 29.90S HARTFORD MOCLDY 73 68 84 S9 29.91F DANBURY CLOUDY 71 67 87 SW8 29.94F WTRBRY/OXFORD N/A 70 64 83 SW5 29.95F BRIDGEPORT MOCLDY 69 66 90 SW5 29.94F MERIDEN CLOUDY 71 67 87 S5 29.93F NEW HAVEN CLOUDY 67 65 93 S5 29.94F CHESTER CLOUDY 68 66 94 VRB6 29.95F GROTON CLOUDY 68 67 96 SW7 29.93F WILLIMANTIC CLOUDY 72 67 84 SW7 29.92F IN RI CITY SKY/WX TMP DP RH WIND PRES REMARKS PROVIDENCE CLOUDY 70 66 87 SW9 29.92F BLOCK ISLAND LGT RAIN 60 60 100 SW13 29.95F VSB 3/4 WESTERLY CLOUDY 67 63 87 SW9 29.94F IN MA CITY SKY/WX TMP DP RH WIND PRES REMARKS BOSTON CLOUDY 68 66 93 SW12 29.88F WORCESTER NOT AVBL WESTFIELD CLOUDY 67 64 90 CALM 29.91S PROVINCETOWN LGT RAIN 62 62 100 S10 29.91S NANTUCKET LGT RAIN 61 60 97 SW9 29.95F VSB 1/2 $$ ANZ330-335-338-340-345-350-353-355-310600- COASTAL MARINE OBSERVATIONS STATION/POSITION TIME SKY/WX TEMP WIND PRES VSBY WAVE AIR SEA DIR/SP/G HT/PER (UTC) (F) (DEG/KT/KT) (MB) (MI) (FT/S) NY HARB ENTRANCE 0350 62 58 200/ 12/ 12 1014.2 3/ 6 20S FIRE ISLAND 0350 62 61 220/ 8/ 8 1014.8 4/ 8 GREAT SOUTH BAY 0400 66 70 230/ 12/ 16 N/A 23 SSW MONTAUK P 0450 60 59 240/ 8/ 10 1014.0 3/ 7 15 E BARNEGAT LI 0422 61 N/A 4/ 7 HUDSON CANYON 0350 63 59 1015.4 4/ 8 KINGS POINT 0400 69 61 1014.0 EXECUTION ROCKS NOT AVBL CENTRAL LI SOUND 0400 66 220/ 8/ 10 N/A 1/ 2 EASTERN LI SOUND NOT AVBL ROBBINS REEF 0400 72 240/ 9/ 12 1013.8 $$ >>>>>>>>>>>>>>>>>>>>>>>>>>>> KEY <<<<<<<<<<<<<<<<<<<<<<<<<<< > < > SKY/WX - SKY CONDITION/PRESENT WEATHER < > TMP - TEMPERATURE IN FAHRENHEIT < > DP - DEWPOINT IN FAHRENHEIT < > RH - RELATIVE HUMIDITY IN PERCENT < > WIND - DIRECTION AND SPEED IN MPH < > PRES - MEAN SEA LEVEL PRESSURE IN INCHES OF HG < > WCI - WIND CHILL INDEX < > VSB - VISIBILITY IN MILES < > HX - HEAT INDEX < > TC - TEMPERATURE IN CELSIUS < > VRB - VARIABLE WIND DIRECTION < > < >>>>>>>>>>>>>>>>>>>>>>>>>>>> KEY <<<<<<<<<<<<<<<<<<<<<<<<<<<

USA.gov is the U.S. government's official web portal to all federal, state and local government web resources and services.